Regional Weather Roundup
Issued by NWS

Home | Current Version | Previous Version | Text Only | Print | Product List | Glossary On
Versions: 1 2 3 4 5 6 7 8 9 10 11 12 13 14 15 16 17 18 19 20 21 22 23 24 25 26 27 28 29 30 31 32 33 34 35 36 37 38 39 40 41 42 43 44 45 46 47 48 49 50
000
ASUS43 KLMK 181310
RWRKY
KENTUCKY REGIONAL WEATHER ROUNDUP
NATIONAL WEATHER SERVICE LOUISVILLE KY
900 AM EDT WED OCT 18 2017

NOTE "FAIR" INDICATES FEW OR NO CLOUDS BELOW 12,000 FEET
WITH NO SIGNIFICANT WEATHER AND/OR OBSTRUCTIONS TO VISIBILITY.

KYZ001>023-026-027-061>063-070>075-181400-
WESTERN AND SOUTH CENTRAL KENTUCKY

CITY           SKY/WX    TMP DP  RH WIND       PRES   REMARKS
PADUCAH        CLEAR     49  43  80 SE5       30.26R
HENDERSON      SUNNY     45  43  93 CALM      30.28R
OWENSBORO      SUNNY     47  44  90 S6        30.30R
HOPKINSVILLE   SUNNY     45  43  92 E3        30.29R
BOWLING GREEN  SUNNY     43  43 100 CALM      30.32R
GLASGOW        SUNNY    N/A N/A N/A CALM      30.33R
$$

KYZ024-025-028>034-038-045-046-053-181400-
NORTH CENTRAL KENTUCKY

CITY           SKY/WX    TMP DP  RH WIND       PRES   REMARKS
LOUISVILLE/SDF MOSUNNY   46  43  89 SE3       30.31R
LOUISVILLE/LOU SUNNY     45  45 100 CALM      30.32R
FORT KNOX      SUNNY     44  44  99 CALM      30.29R
$$

KYZ035>037-039>044-047>052-055>060-089>105-181400-
NORTHEAST KENTUCKY

CITY           SKY/WX    TMP DP  RH WIND       PRES   REMARKS
LEXINGTON      SUNNY     47  42  83 SE6       30.33R
COVINGTON      SUNNY     47  43  86 SE5       30.32R
FRANKFORT      SUNNY     43  40  89 CALM      30.31R
$$

KYZ054-064>069-076>088-106>120-181400-
SOUTHEAST KENTUCKY

CITY           SKY/WX    TMP DP  RH WIND       PRES   REMARKS
JACKSON        SUNNY     46  42  86 CALM      30.34R
LONDON         SUNNY     43  40  89 CALM      30.35R
SOMERSET       CLOUDY    39  39 100 CALM      30.36R FOG
MIDDLESBORO    FOG       39  39 100 CALM      30.39R VSB<1/4
MONTICELLO     SUNNY     41  40  96 W8        30.36R
$$





USA.gov is the U.S. government's official web portal to all federal, state and local government web resources and services.